�������l�o���
Date,Time,MP-1(��Sv/h),MP-2(��Sv/h),MP-3(��Sv/h),MP-4(��Sv/h),MP-5(��Sv/h),MP-6(��Sv/h),MP-7(��Sv/h),MP-8(��Sv/h),����,����(m/s),���J
2020/10/25,00:00,0.647,0.919,0.587,1.130,0.810,0.381,0.660,0.624,���k��,10.4,��
2020/10/25,00:10,0.648,0.923,0.588,1.129,0.810,0.380,0.661,0.626,���k��,10.7,��
2020/10/25,00:20,0.648,0.922,0.588,1.129,0.811,0.380,0.659,0.624,��,9.1,��
2020/10/25,00:30,0.647,0.922,0.587,1.129,0.812,0.381,0.659,0.624,���k��,6.2,��
2020/10/25,00:40,0.648,0.922,0.588,1.131,0.814,0.380,0.659,0.626,��,6.4,��
2020/10/25,00:50,0.647,0.921,0.589,1.131,0.812,0.381,0.660,0.624,���k��,3.2,��
2020/10/25,01:00,0.647,0.921,0.588,1.129,0.813,0.380,0.661,0.624,���쐼,0.8,��
2020/10/25,01:10,0.647,0.920,0.589,1.129,0.810,0.382,0.661,0.625,�쐼,3.3,��
2020/10/25,01:20,0.646,0.921,0.587,1.132,0.811,0.380,0.660,0.624,��,3.0,��
2020/10/25,01:30,0.645,0.922,0.587,1.131,0.811,0.379,0.659,0.624,��,1.7,��
2020/10/25,01:40,0.645,0.924,0.587,1.131,0.811,0.380,0.661,0.624,��,3.9,��
2020/10/25,01:50,0.646,0.921,0.588,1.130,0.814,0.380,0.660,0.624,��,7.3,��
2020/10/25,02:00,0.646,0.922,0.587,1.132,0.811,0.382,0.661,0.623,��,6.1,��
2020/10/25,02:10,0.648,0.922,0.588,1.131,0.814,0.382,0.661,0.624,��,4.9,��
2020/10/25,02:20,0.646,0.921,0.587,1.132,0.812,0.380,0.661,0.625,���쐼,5.8,��
2020/10/25,02:30,0.647,0.921,0.588,1.131,0.815,0.381,0.660,0.622,��,2.0,��
2020/10/25,02:40,0.646,0.922,0.586,1.131,0.813,0.380,0.660,0.625,���k��,5.2,��
2020/10/25,02:50,0.648,0.920,0.589,1.130,0.813,0.381,0.662,0.624,��,2.6,��
2020/10/25,03:00,0.647,0.922,0.588,1.131,0.815,0.381,0.662,0.624,���k��,4.5,��
2020/10/25,03:10,0.650,0.923,0.587,1.130,0.812,0.381,0.661,0.625,���k��,3.9,��
2020/10/25,03:20,0.646,0.923,0.587,1.132,0.812,0.379,0.660,0.625,��,5.2,��
2020/10/25,03:30,0.647,0.922,0.588,1.131,0.812,0.379,0.661,0.626,���쐼,3.5,��
2020/10/25,03:40,0.647,0.922,0.586,1.131,0.815,0.378,0.659,0.624,���k��,2.9,��
2020/10/25,03:50,0.648,0.921,0.587,1.132,0.811,0.382,0.661,0.625,��,3.0,��
2020/10/25,04:00,0.648,0.922,0.587,1.130,0.814,0.380,0.661,0.626,��,4.1,��
2020/10/25,04:10,0.646,0.922,0.587,1.131,0.812,0.379,0.660,0.626,��,4.4,��
2020/10/25,04:20,0.648,0.923,0.588,1.131,0.812,0.380,0.660,0.625,��,3.5,��
2020/10/25,04:30,0.649,0.919,0.588,1.128,0.813,0.380,0.661,0.623,��,3.2,��
2020/10/25,04:40,0.646,0.921,0.587,1.128,0.813,0.379,0.660,0.626,���쐼,3.0,��
2020/10/25,04:50,0.647,0.921,0.588,1.131,0.813,0.380,0.661,0.623,��,3.3,��
2020/10/25,05:00,0.648,0.920,0.587,1.131,0.814,0.379,0.660,0.625,���쐼,2.0,��
2020/10/25,05:10,0.649,0.922,0.587,1.130,0.813,0.379,0.660,0.625,���쐼,2.3,��
2020/10/25,05:20,0.647,0.922,0.589,1.130,0.813,0.380,0.660,0.625,���쐼,1.7,��
2020/10/25,05:30,0.647,0.922,0.587,1.130,0.810,0.380,0.660,0.625,���쐼,1.5,��
2020/10/25,05:40,0.646,0.922,0.588,1.131,0.811,0.380,0.660,0.625,���쐼,3.3,��
2020/10/25,05:50,0.649,0.922,0.589,1.129,0.813,0.380,0.661,0.624,��,4.8,��
2020/10/25,06:00,0.645,0.923,0.588,1.130,0.814,0.380,0.662,0.625,��,4.4,��
2020/10/25,06:10,0.649,0.922,0.587,1.131,0.813,0.381,0.661,0.625,��,4.5,��
2020/10/25,06:20,0.646,0.923,0.587,1.131,0.811,0.378,0.660,0.623,��,4.3,��
2020/10/25,06:30,0.648,0.922,0.587,1.130,0.814,0.379,0.662,0.625,��,6.1,��
2020/10/25,06:40,0.648,0.923,0.587,1.132,0.814,0.379,0.661,0.626,��,6.3,��
2020/10/25,06:50,0.649,0.923,0.588,1.131,0.813,0.380,0.663,0.624,���k��,7.9,��
2020/10/25,07:00,0.645,0.923,0.587,1.130,0.812,0.381,0.663,0.625,���k��,8.5,��
2020/10/25,07:10,0.649,0.923,0.587,1.133,0.813,0.381,0.661,0.626,���k��,6.8,��
2020/10/25,07:20,0.649,0.924,0.590,1.131,0.813,0.381,0.661,0.625,�k��,4.5,��
2020/10/25,07:30,0.649,0.923,0.588,1.131,0.810,0.379,0.662,0.625,���k��,4.6,��
2020/10/25,07:40,0.649,0.923,0.588,1.133,0.814,0.379,0.662,0.625,���k��,5.8,��
2020/10/25,07:50,0.650,0.922,0.589,1.133,0.814,0.380,0.661,0.624,�k��,5.0,��
2020/10/25,08:00,0.649,0.926,0.588,1.133,0.814,0.381,0.661,0.625,���k��,5.9,��
2020/10/25,08:10,0.651,0.924,0.587,1.134,0.815,0.380,0.661,0.625,��,7.6,��
2020/10/25,08:20,0.648,0.923,0.589,1.135,0.815,0.381,0.660,0.625,���k��,8.6,��
2020/10/25,08:30,0.650,0.922,0.590,1.134,0.815,0.381,0.661,0.626,��,7.3,��
2020/10/25,08:40,0.650,0.925,0.590,1.133,0.814,0.382,0.660,0.625,���k��,12.2,��
2020/10/25,08:50,0.649,0.922,0.589,1.134,0.816,0.380,0.660,0.626,��,11.3,��
2020/10/25,09:00,0.649,0.924,0.589,1.135,0.814,0.381,0.662,0.625,��,12.5,��
2020/10/25,09:10,0.648,0.923,0.590,1.134,0.815,0.381,0.659,0.625,��,9.1,��
2020/10/25,09:20,0.646,0.924,0.590,1.134,0.815,0.381,0.660,0.627,���쐼,4.9,��
2020/10/25,09:30,0.649,0.926,0.591,1.133,0.815,0.380,0.659,0.625,���쐼,6.1,��
2020/10/25,09:40,0.648,0.925,0.589,1.138,0.817,0.382,0.659,0.626,��,6.1,��
2020/10/25,09:50,0.648,0.926,0.590,1.134,0.815,0.380,0.660,0.624,���쐼,5.8,��
2020/10/25,10:00,0.647,0.927,0.589,1.138,0.815,0.381,0.662,0.625,���쐼,7.3,��
2020/10/25,10:10,0.647,0.922,0.591,1.137,0.816,0.380,0.662,0.625,���쐼,8.6,��
2020/10/25,10:20,0.648,0.927,0.591,1.135,0.816,0.380,0.661,0.625,���쐼,5.4,��
2020/10/25,10:30,0.650,0.927,0.589,1.137,0.817,0.379,0.661,0.625,���쐼,7.3,��
2020/10/25,10:40,0.650,0.928,0.590,1.136,0.816,0.382,0.660,0.626,���쐼,7.2,��
2020/10/25,10:50,0.650,0.925,0.589,1.136,0.816,0.380,0.662,0.624,���쐼,6.6,��
2020/10/25,11:00,0.652,0.929,0.590,1.136,0.816,0.381,0.662,0.625,��,7.8,��
2020/10/25,11:10,0.650,0.930,0.590,1.137,0.817,0.381,0.662,0.626,��,8.2,��
2020/10/25,11:20,0.651,0.929,0.591,1.139,0.819,0.381,0.662,0.626,���쐼,7.7,��
2020/10/25,11:30,0.650,0.927,0.591,1.136,0.817,0.382,0.664,0.624,���쐼,7.6,��
2020/10/25,11:40,0.651,0.928,0.591,1.138,0.819,0.381,0.662,0.626,���쐼,7.5,��
2020/10/25,11:50,0.650,0.930,0.591,1.138,0.817,0.381,0.661,0.626,���쐼,6.3,��
2020/10/25,12:00,0.651,0.929,0.590,1.136,0.819,0.383,0.662,0.626,���쐼,6.1,��
2020/10/25,12:10,0.651,0.931,0.592,1.139,0.819,0.383,0.663,0.624,��,9.5,��
2020/10/25,12:20,0.652,0.930,0.593,1.139,0.819,0.383,0.662,0.625,��,7.6,��
2020/10/25,12:30,0.650,0.930,0.591,1.141,0.818,0.384,0.662,0.623,��,7.8,��
2020/10/25,12:40,0.652,0.929,0.590,1.138,0.819,0.383,0.662,0.625,��,6.9,��
2020/10/25,12:50,0.653,0.931,0.592,1.138,0.818,0.384,0.662,0.624,��,8.4,��
2020/10/25,13:00,0.651,0.931,0.593,1.138,0.820,0.383,0.662,0.623,���k��,8.1,��
2020/10/25,13:10,0.652,0.930,0.593,1.142,0.818,0.382,0.663,0.624,��,7.0,��
2020/10/25,13:20,0.651,0.930,0.591,1.139,0.819,0.384,0.662,0.625,��,9.2,��
2020/10/25,13:30,0.653,0.930,0.591,1.140,0.822,0.381,0.663,0.625,���쐼,9.5,��
2020/10/25,13:40,0.654,0.933,0.591,1.141,0.820,0.382,0.661,0.624,��,8.0,��
2020/10/25,13:50,0.652,0.931,0.591,1.141,0.824,0.382,0.664,0.624,���k��,8.8,��
2020/10/25,14:00,0.652,0.932,0.591,1.140,0.821,0.383,0.662,0.624,���k��,7.8,��
2020/10/25,14:10,0.650,0.931,0.591,1.142,0.820,0.381,0.662,0.625,��,9.6,��
2020/10/25,14:20,0.651,0.931,0.591,1.139,0.822,0.383,0.662,0.624,��,8.7,��
2020/10/25,14:30,0.653,0.931,0.590,1.142,0.822,0.380,0.661,0.624,���쐼,7.5,��
2020/10/25,14:40,0.652,0.930,0.592,1.140,0.821,0.382,0.663,0.625,���쐼,9.2,��
2020/10/25,14:50,0.652,0.932,0.593,1.144,0.822,0.382,0.662,0.625,���쐼,10.8,��
2020/10/25,15:00,0.653,0.930,0.593,1.145,0.822,0.381,0.660,0.622,��,9.6,��
2020/10/25,15:10,0.651,0.932,0.592,1.140,0.822,0.382,0.662,0.624,��,7.9,��
2020/10/25,15:20,0.651,0.933,0.592,1.142,0.822,0.383,0.660,0.624,���쐼,7.7,��
2020/10/25,15:30,0.651,0.933,0.594,1.138,0.821,0.384,0.663,0.624,��,7.6,��
2020/10/25,15:40,0.651,0.934,0.593,1.143,0.821,0.383,0.661,0.624,���쐼,8.0,��
2020/10/25,15:50,0.652,0.935,0.593,1.142,0.821,0.383,0.662,0.624,���쐼,6.4,��
2020/10/25,16:00,0.652,0.932,0.593,1.140,0.822,0.383,0.662,0.627,���쐼,6.3,��
2020/10/25,16:10,0.652,0.932,0.590,1.144,0.821,0.383,0.662,0.625,���쐼,5.0,��
2020/10/25,16:20,0.650,0.934,0.593,1.143,0.822,0.384,0.662,0.625,��,4.7,��
2020/10/25,16:30,0.652,0.933,0.592,1.143,0.821,0.383,0.662,0.628,���쐼,5.6,��
2020/10/25,16:40,0.651,0.935,0.593,1.141,0.821,0.384,0.661,0.628,���쐼,5.3,��
2020/10/25,16:50,0.652,0.935,0.593,1.140,0.822,0.383,0.662,0.627,���쐼,5.1,��
2020/10/25,17:00,0.653,0.934,0.594,1.141,0.821,0.384,0.662,0.626,���쐼,5.4,��
2020/10/25,17:10,0.654,0.933,0.594,1.142,0.823,0.385,0.664,0.629,���쐼,5.6,��
2020/10/25,17:20,0.655,0.932,0.594,1.140,0.825,0.384,0.662,0.629,���쐼,5.7,��
2020/10/25,17:30,0.652,0.935,0.593,1.141,0.825,0.384,0.662,0.629,���쐼,6.2,��
2020/10/25,17:40,0.652,0.934,0.592,1.141,0.824,0.381,0.663,0.628,���쐼,6.6,��
2020/10/25,17:50,0.653,0.933,0.592,1.141,0.823,0.383,0.663,0.627,���쐼,6.3,��
2020/10/25,18:00,0.654,0.934,0.592,1.140,0.824,0.383,0.662,0.626,���쐼,4.9,��
2020/10/25,18:10,0.652,0.932,0.593,1.140,0.823,0.382,0.662,0.626,�쐼,4.0,��
2020/10/25,18:20,0.652,0.934,0.593,1.141,0.823,0.383,0.662,0.627,�쐼,3.8,��
2020/10/25,18:30,0.652,0.932,0.595,1.141,0.823,0.383,0.662,0.626,�쐼,4.1,��
2020/10/25,18:40,0.653,0.934,0.593,1.142,0.824,0.382,0.664,0.626,���쐼,3.8,��
2020/10/25,18:50,0.654,0.933,0.593,1.141,0.823,0.383,0.663,0.626,���쐼,5.8,��
2020/10/25,19:00,0.653,0.933,0.594,1.142,0.824,0.382,0.665,0.627,���쐼,5.7,��
2020/10/25,19:10,0.653,0.933,0.593,1.141,0.821,0.380,0.663,0.627,�쐼,4.8,��
2020/10/25,19:20,0.653,0.933,0.592,1.141,0.824,0.383,0.664,0.628,�쐼,4.6,��
2020/10/25,19:30,0.654,0.933,0.594,1.140,0.823,0.383,0.663,0.626,��쐼,4.9,��
2020/10/25,19:40,0.653,0.932,0.593,1.141,0.825,0.382,0.663,0.626,��쐼,4.6,��
2020/10/25,19:50,0.653,0.933,0.594,1.141,0.822,0.383,0.662,0.625,��쐼,4.8,��
2020/10/25,20:00,0.655,0.932,0.593,1.141,0.822,0.381,0.662,0.626,��쐼,4.9,��
2020/10/25,20:10,0.653,0.934,0.593,1.141,0.822,0.381,0.663,0.626,�쐼,4.3,��
2020/10/25,20:20,0.652,0.934,0.593,1.142,0.823,0.382,0.663,0.627,�쐼,4.2,��
2020/10/25,20:30,0.653,0.932,0.593,1.140,0.823,0.381,0.661,0.626,�쐼,4.6,��
2020/10/25,20:40,0.654,0.935,0.593,1.141,0.821,0.382,0.664,0.628,�쐼,4.9,��
2020/10/25,20:50,0.654,0.931,0.594,1.139,0.823,0.381,0.664,0.627,�쐼,4.3,��
2020/10/25,21:00,0.653,0.934,0.591,1.140,0.824,0.382,0.664,0.627,�쐼,4.7,��
2020/10/25,21:10,0.653,0.933,0.592,1.139,0.822,0.381,0.663,0.625,�쐼,5.3,��
2020/10/25,21:20,0.654,0.934,0.593,1.142,0.823,0.382,0.663,0.627,�쐼,7.1,��
2020/10/25,21:30,0.651,0.934,0.594,1.142,0.823,0.382,0.662,0.626,�쐼,8.0,��
2020/10/25,21:40,0.655,0.932,0.593,1.142,0.823,0.381,0.665,0.628,�쐼,8.9,��
2020/10/25,21:50,0.654,0.933,0.592,1.142,0.823,0.383,0.664,0.628,�쐼,9.0,��
2020/10/25,22:00,0.654,0.934,0.595,1.142,0.822,0.381,0.667,0.626,�쐼,8.3,��
2020/10/25,22:10,0.653,0.932,0.593,1.142,0.824,0.382,0.664,0.627,�쐼,9.0,��
2020/10/25,22:20,0.653,0.934,0.595,1.144,0.825,0.382,0.663,0.628,�쐼,8.9,��
2020/10/25,22:30,0.655,0.934,0.594,1.142,0.826,0.382,0.663,0.629,�쐼,8.8,��
2020/10/25,22:40,0.655,0.933,0.594,1.142,0.824,0.383,0.663,0.630,�쐼,8.6,��
2020/10/25,22:50,0.654,0.933,0.594,1.142,0.826,0.382,0.664,0.627,�쐼,9.2,��
2020/10/25,23:00,0.655,0.933,0.594,1.145,0.822,0.383,0.664,0.629,�쐼,8.5,��
2020/10/25,23:10,0.656,0.936,0.594,1.144,0.826,0.381,0.663,0.629,�쐼,8.6,��
2020/10/25,23:20,0.656,0.934,0.593,1.143,0.825,0.381,0.661,0.628,�쐼,7.5,��
2020/10/25,23:30,0.654,0.933,0.594,1.143,0.824,0.383,0.662,0.627,�쐼,6.1,��
2020/10/25,23:40,0.653,0.933,0.594,1.144,0.825,0.381,0.663,0.626,�쐼,5.9,��
2020/10/25,23:50,0.656,0.934,0.593,1.144,0.823,0.382,0.662,0.628,��쐼,6.0,��
